Location: Dzierzno
(50.6159°N, 19.2852°E)
Time: 03:15:06
(UTC+00:00)

Cosmos 2195 Rocket - Pass Details

Date: 18 November 2025
Orbit: 948 x 991 km, 82.9° (Epoch: 04 December)

Event Time Altitude Azimuth Distance (km) Brightness Sun altitude
Rises 17:03:34 0° 350° (N) 3,699 7.6 -20.4°
Reaches altitude 10° 17:06:06 10° 353° (N) 2,752 6.9 -20.8°
Maximum altitude 17:12:26 76° 79° (E) 1,024 4.4 -21.8°
Drops below altitude 10° 17:18:46 10° 165° (SSE) 2,748 6.7 -22.8°
Sets 17:21:17 0° 167° (SSE) 3,693 7.4 -23.2°
